Starlink 3090

operational
NORAD ID: 49132 Int'l Des: 2021-082 Owner: SPXS Country: US Constellation: starlink
LEOCIRCULAR

About Starlink 3090

Description loading...

Live Position

Loading 3D Globe...

Upcoming Passes

Altitude History

Altitude vs Time

uPlot chart will show altitude changes over time

Two-Line Element Set

1 49132U 21082C 25349.85508371 .00000014 00000-0 89976-5 0 9991
2 49132 69.9994 145.7046 0002842 271.2959 88.7874 14.98331470233421
Epoch: Dec 15, 2025 • Age: 24 hours

Current Status

Altitude 579.6 km
Velocity 7.57 km/s
Sub-Earth Point 44.23°N, 126.53°E
Launch Date Sep 14, 2021
Age 4.2 years
Type internet

Technical Details

Classification Payload
Mass 297.00 kg
Dry Mass 275.00 kg
Total Mass 297.00 kg
Length 0.20 m
Diameter 2.80 m
Span 9.00 m
Shape Box + pan
Manufacturer SPXS
Bus Type Starlink
Phase Status In Orbit
Owner/State SPXS/US

Large Constellations

Loading constellations...